Hourly Data Report for June 28, 2018

TORONTO CITY
ONTARIO
Current Station Operator: ECCC - MSC

43°40'00.000" N
79°24'00.000" W
112.50 m
6158355
71508
XTO

Download Data

Hourly Data (June 2018)
Hourly Data Report for June 28, 2018
TIME
LST
Temp Definition
°C
Dew Point Definition
°C
Rel Hum Definition
%
Precip. Amount Definition
mm

Wind Dir Definition
10's deg

Wind Spd Definition
km/h
Visibility Definition
km
Stn Press Definition
kPa
Hmdx Definition


Wind Chill Definition


Weather Definition


00:00 19.6 17.3 87 0.0 LegendMM LegendMM   99.36     LegendNANA
01:00 19.3 17.2 87 0.0 LegendMM LegendMM   99.36     LegendNANA
02:00 19.3 17.3 88 0.0 LegendMM LegendMM   99.35     LegendNANA
03:00 19.4 17.3 88 0.0 LegendMM LegendMM   99.33     LegendNANA
04:00 19.9 17.8 88 0.0 LegendMM LegendMM   99.38     LegendNANA
05:00 20.0 17.7 86 0.0 LegendMM LegendMM   99.41 26   LegendNANA
06:00 19.6 17.2 86 0.0 LegendMM LegendMM   99.46     LegendNANA
07:00 19.2 16.8 86 0.0 LegendMM LegendMM   99.51     LegendNANA
08:00 20.7 17.7 83 0.0 LegendMM LegendMM   99.55 26   LegendNANA
09:00 22.7 17.0 71 0.0 LegendMM LegendMM   99.61 28   LegendNANA
10:00 23.4 16.5 65 0.0 LegendMM LegendMM   99.64 28   LegendNANA
11:00 24.7 16.0 59 0.0 LegendMM LegendMM   99.68 29   LegendNANA
12:00 26.9 15.1 48 0.0 LegendMM LegendMM   99.68 31   LegendNANA
13:00 27.6 13.8 43 0.0 LegendMM LegendMM   99.67 31   LegendNANA
14:00 25.9 16.9 58 0.0 LegendMM LegendMM   99.65 31   LegendNANA
15:00 26.1 17.1 58 0.0 LegendMM LegendMM   99.64 31   LegendNANA
16:00 27.6 16.7 52 0.0 LegendMM LegendMM   99.63 33   LegendNANA
17:00 26.5 15.1 50 0.0 LegendMM LegendMM   99.63 31   LegendNANA
18:00 28.3 14.2 42 0.0 LegendMM LegendMM   99.63 32   LegendNANA
19:00 27.9 14.1 43 0.0 LegendMM LegendMM   99.69 31   LegendNANA
20:00 26.3 14.5 48 0.0 LegendMM LegendMM   99.77 30   LegendNANA
21:00 25.1 14.7 52 0.0 LegendMM LegendMM   99.86 29   LegendNANA
22:00 23.8 14.8 57 0.0 LegendMM LegendMM   99.87 28   LegendNANA
23:00 24.3 15.6 59 0.0 LegendMM LegendMM   99.88 29   LegendNANA

Notes on Data Quality.

Legend

  • E = Estimated
  • M = Missing
  • NA = Not Available*
  • [empty] = Indicates an unobserved value
Date modified: